Location: *
(51.5000°N, 0.1100°W)
Time: 06:45:47
(UTC+00:00)

Cosmos 1025 Rocket - Pass Details

Date: 08 August 2024
Orbit: 590 x 612 km, 82.5° (Epoch: 07 September)

Event Time Altitude Azimuth Distance (km) Brightness Sun altitude
Rises 03:40:38 0° 356° (N) 2,887 7.0 -8.0°
Reaches altitude 10° 03:43:06 10° 8° (N) 1,980 6.4 -7.7°
Maximum altitude 03:46:57 29° 69° (ENE) 1,135 5.4 -7.2°
Drops below altitude 10° 03:50:46 10° 130° (SE) 1,972 5.8 -6.7°
Sets 03:53:13 0° 142° (SE) 2,872 6.5 -6.4°
